K4GZX-11 Weather Reports


Display with metric or nautical units.
time (UTC)temp
F
wind
direction
speed
MPH
gust
MPH
rain 1hr
in
rain 24hr
in
rain mn
in
humidity
%
barometer
mb
20260502231953 65 172 0.0 0.0 0.00 0.01 0.01 69 1011.9
20260502231453 66 172 0.0 0.0 0.00 0.01 0.01 69 1011.7
20260502230954 66 172 0.0 0.0 0.00 0.01 0.01 68 1011.7
20260502230459 66 172 0.0 0.0 0.00 0.01 0.01 68 1011.6
20260502230007 66 172 0.0 0.0 0.00 0.01 0.01 67 1011.6
20260502225514 66 172 0.0 0.0 0.00 0.01 0.01 67 1011.7
20260502225009 66 172 0.0 0.0 0.00 0.01 0.01 67 1011.7
20260502224505 66 172 0.0 0.0 0.00 0.01 0.01 65 1011.7
20260502223953 66 172 0.0 0.0 0.00 0.01 0.01 65 1011.6
20260502223453 66 172 0.0 0.0 0.00 0.01 0.01 65 1011.5
20260502222953 66 172 0.0 0.0 0.00 0.01 0.01 64 1011.5
20260502222453 66 172 0.0 0.0 0.00 0.01 0.01 64 1011.4
20260502221953 66 172 0.0 0.0 0.00 0.01 0.01 63 1011.4
20260502221453 66 172 0.0 0.0 0.00 0.01 0.01 62 1011.3
20260502220953 66 172 0.0 0.0 0.00 0.01 0.01 62 1011.3
20260502220453 66 172 0.0 0.0 0.00 0.01 0.01 64 1011.3
20260502215953 66 172 0.0 0.0 0.00 0.01 0.01 63 1011.3
20260502215453 66 172 0.0 0.0 0.00 0.01 0.01 61 1011.2
20260502214953 66 172 0.0 0.0 0.00 0.01 0.01 62 1011.1
20260502214453 66 172 0.0 0.0 0.00 0.01 0.01 62 1011.1
20260502213953 66 172 0.0 0.0 0.00 0.01 0.01 61 1011.0
20260502213453 66 172 0.0 0.0 0.00 0.01 0.01 63 1011.0
20260502212953 66 172 0.0 0.0 0.00 0.01 0.01 63 1011.0
20260502212457 66 172 0.0 0.0 0.00 0.01 0.01 62 1011.0
20260502212005 66 172 0.0 0.0 0.00 0.01 0.01 62 1010.9
20260502211453 66 172 0.0 0.0 0.00 0.01 0.01 62 1011.0
20260502210953 66 172 0.0 0.0 0.00 0.01 0.01 62 1011.0
20260502210453 67 172 0.0 0.0 0.00 0.01 0.01 62 1011.0
20260502205953 67 172 0.0 0.0 0.00 0.01 0.01 60 1011.0
20260502205457 67 172 0.0 0.0 0.00 0.01 0.01 60 1010.9
20260502205005 67 172 0.0 0.0 0.00 0.01 0.01 60 1010.9
20260502204453 67 172 0.0 0.0 0.00 0.01 0.01 61 1010.9
20260502203953 67 172 0.0 0.0 0.00 0.01 0.01 59 1011.0
20260502203453 67 172 0.0 0.0 0.00 0.01 0.01 60 1011.0
20260502202953 67 172 0.0 0.0 0.00 0.01 0.01 60 1011.1
20260502202453 67 172 0.0 0.0 0.00 0.01 0.01 60 1011.1
20260502201953 67 172 0.0 0.0 0.00 0.01 0.01 59 1011.1
20260502201453 67 172 0.0 0.0 0.00 0.01 0.01 58 1011.2
20260502200953 67 172 0.0 0.0 0.00 0.01 0.01 60 1011.2
20260502200453 67 172 0.0 0.0 0.00 0.01 0.01 60 1011.2
20260502195957 68 172 0.0 0.0 0.00 0.01 0.01 60 1011.2
20260502195504 68 172 0.0 0.0 0.00 0.01 0.01 59 1011.2
20260502195011 69 172 0.0 0.0 0.00 0.01 0.01 57 1011.3
20260502194518 69 172 0.0 0.0 0.00 0.01 0.01 54 1011.4
20260502194014 69 172 0.0 0.0 0.00 0.01 0.01 55 1011.4
20260502193509 69 172 0.0 0.0 0.00 0.01 0.01 56 1011.5
20260502193005 69 172 0.0 0.0 0.00 0.01 0.01 57 1011.5
20260502192453 69 172 0.0 0.0 0.00 0.01 0.01 58 1011.5
20260502191953 68 172 0.0 0.0 0.00 0.01 0.01 62 1011.5
20260502191453 67 172 0.0 0.0 0.00 0.01 0.01 63 1011.6
20260502190953 66 172 0.0 0.0 0.00 0.01 0.01 65 1011.7
20260502190453 66 172 0.0 0.0 0.00 0.01 0.01 66 1011.8
20260502185953 66 172 0.0 0.0 0.00 0.01 0.01 64 1011.9
20260502185453 66 172 0.0 0.0 0.00 0.01 0.01 64 1012.0
20260502184953 65 172 0.0 0.0 0.00 0.01 0.01 66 1011.9
20260502184453 65 172 0.0 0.0 0.00 0.01 0.01 66 1011.9
20260502183952 65 172 0.0 0.0 0.00 0.01 0.01 67 1011.9
20260502183453 65 172 0.0 0.0 0.00 0.01 0.01 67 1011.9
20260502182953 65 172 0.0 0.0 0.00 0.01 0.01 67 1012.1
20260502182453 65 172 0.0 0.0 0.00 0.01 0.01 67 1012.2
20260502181953 65 172 0.0 0.0 0.00 0.01 0.01 69 1012.2
20260502181453 64 172 0.0 0.0 0.00 0.01 0.01 68 1012.3
20260502180953 64 172 0.0 0.0 0.00 0.01 0.01 67 1012.4
20260502180453 64 172 0.0 0.0 0.00 0.01 0.01 67 1012.4
20260502170457 63 172 0.0 0.0 0.00 0.01 0.01 67 1012.6
20260502163953 63 172 0.0 0.0 0.00 0.01 0.01 69 1012.9
20260502163453 63 172 0.0 0.0 0.00 0.01 0.01 68 1013.0
20260502162953 63 172 0.0 0.0 0.00 0.01 0.01 69 1013.1
20260502162452 63 172 0.0 0.0 0.00 0.01 0.01 68 1013.0
20260502161953 62 172 0.0 0.0 0.00 0.01 0.01 68 1013.0
20260502161452 62 172 0.0 0.0 0.00 0.01 0.01 69 1013.0
20260502160952 62 172 0.0 0.0 0.00 0.01 0.01 69 1013.1
20260502160453 62 172 0.0 0.0 0.00 0.01 0.01 69 1013.0
20260502151953 60 172 0.0 0.0 0.00 0.01 0.01 78 1013.2
20260502151452 60 172 0.0 0.0 0.00 0.01 0.01 80 1013.2
20260502150952 60 172 0.0 0.0 0.00 0.01 0.01 81 1013.1
20260502150453 60 172 0.0 0.0 0.00 0.01 0.01 83 1013.0
20260502130516 57 172 0.0 0.0 0.00 0.01 0.01 87 1012.5
20260502123452 56 172 0.0 0.0 0.00 0.01 0.01 87 1012.6
20260502122954 56 172 0.0 0.0 0.00 0.01 0.01 87 1012.2
20260502122502 56 172 0.0 0.0 0.00 0.01 0.01 87 1012.0
20260502122009 56 172 0.0 0.0 0.00 0.01 0.01 86 1011.6
20260502121505 56 172 0.0 0.0 0.00 0.01 0.01 86 1011.7
20260502120952 56 172 0.0 0.0 0.00 0.01 0.01 86 1012.0
20260502120452 56 172 0.0 0.0 0.00 0.01 0.01 86 1012.1
20260502115452 56 172 0.0 0.0 0.00 0.01 0.01 86 1012.4
20260502114952 56 172 0.0 0.0 0.00 0.01 0.01 86 1012.7
20260502114458 0 0.0 0.0 0.00 0.01 0.01 1012.7
20260502114006 0 0.0 0.0 0.00 0.01 0.01 1012.8
20260502113513 0 0.0 0.0 0.00 0.01 0.01 1012.7
20260502113021 0 0.0 0.0 0.00 0.01 0.01 1012.6
20260502112504 0 0.0 0.0 0.00 0.01 0.01 1012.5
20260502111957 0 0.0 0.0 0.00 0.01 0.01 1012.6
20260502111505 56 0.0 0.0 0.00 0.01 0.01 1012.5
20260502110952 56 172 0.0 0.0 0.00 0.01 0.01 86 1012.1
20260502110452 56 172 0.0 0.0 0.00 0.01 0.01 86 1011.7
20260502105952 56 172 0.0 0.0 0.00 0.01 0.01 86 1011.5
20260502105452 56 172 0.0 0.0 0.00 0.01 0.01 86 1011.4
20260502104957 56 172 0.0 0.0 0.00 0.01 0.01 86 1011.4
20260502104504 56 172 0.0 0.0 0.00 0.01 0.01 86 1011.2
20260502103952 56 172 0.0 0.0 0.00 0.01 0.01 85 1010.8
20260502103452 56 172 0.0 0.0 0.00 0.01 0.01 85 1011.2
20260502102952 56 172 0.0 0.0 0.00 0.01 0.01 85 1011.2
20260502102452 56 172 0.0 0.0 0.00 0.01 0.01 85 1011.3
20260502101952 56 172 0.0 0.0 0.00 0.01 0.01 85 1011.0
20260502101452 56 172 0.0 0.0 0.00 0.01 0.01 85 1010.9
20260502100952 56 172 0.0 0.0 0.00 0.01 0.01 85 1010.9
20260502100452 56 172 0.0 0.0 0.00 0.01 0.01 85 1010.9
20260502091452 57 172 0.0 0.0 0.01 0.01 0.01 85 1011.3
20260502090952 57 172 0.0 0.0 0.01 0.01 0.01 84 1011.3
20260502090452 57 172 0.0 0.0 0.01 0.01 0.01 84 1011.4
20260502071452 57 172 0.0 0.0 0.00 0.00 0.00 83 1012.1
20260502070957 57 172 0.0 0.0 0.00 0.00 0.00 83 1012.0
20260502070504 57 172 0.0 0.0 0.00 0.00 0.00 83 1011.8
20260502065952 57 172 0.0 0.0 0.00 0.00 0.00 83 1011.9
20260502065452 57 172 0.0 0.0 0.00 0.00 0.00 83 1011.8
20260502064952 57 172 0.0 0.0 0.00 0.00 0.00 83 1011.7
20260502064452 57 172 0.0 0.0 0.00 0.00 0.00 83 1011.7
20260502063957 57 172 0.0 0.0 0.00 0.00 0.00 83 1011.8
20260502063504 58 172 0.0 0.0 0.00 0.00 0.00 83 1011.6
20260502062952 58 172 0.0 0.0 0.00 0.00 0.00 83 1011.7
20260502062452 58 172 0.0 0.0 0.00 0.00 0.00 82 1011.8
20260502061952 58 172 0.0 0.0 0.00 0.00 0.00 82 1011.9
20260502061452 58 172 0.0 0.0 0.00 0.00 0.00 82 1011.8
20260502060957 58 172 0.0 0.0 0.00 0.00 0.00 82 1011.9
20260502060504 58 172 0.0 0.0 0.00 0.00 0.00 82 1011.9
20260502055952 58 172 0.0 0.0 0.00 0.00 0.00 82 1011.8
20260502055452 58 172 0.0 0.0 0.00 0.00 0.00 82 1011.7
20260502054958 58 172 0.0 0.0 0.00 0.00 0.00 82 1011.9
20260502054505 58 172 0.0 0.0 0.00 0.00 0.00 82 1011.9
20260502053952 58 172 0.0 0.0 0.00 0.00 0.00 82 1012.0
20260502053452 58 172 0.0 0.0 0.00 0.00 0.00 82 1012.1
20260502052952 58 172 0.0 0.0 0.00 0.00 0.00 82 1012.1
20260502052452 58 172 0.0 0.0 0.00 0.00 0.00 82 1012.1
20260502051952 58 172 0.0 0.0 0.00 0.00 0.00 82 1012.2
20260502051452 58 172 0.0 0.0 0.00 0.00 0.00 82 1012.3
20260502050952 58 172 0.0 0.0 0.00 0.00 0.00 82 1012.3
20260502050452 58 172 0.0 0.0 0.00 0.00 0.00 82 1012.2
20260502045853 58 172 0.0 0.0 0.00 0.00 0.00 81 1012.3
20260502045353 58 172 0.0 0.0 0.00 0.00 0.00 81 1012.5
20260502044853 58 172 0.0 0.0 0.00 0.00 0.00 81 1012.4
20260502044353 59 172 0.0 0.0 0.00 0.00 0.00 81 1012.6
20260502043853 59 172 0.0 0.0 0.00 0.00 0.00 81 1012.7
20260502043353 59 172 0.0 0.0 0.00 0.00 0.00 80 1012.7
20260502042853 59 172 0.0 0.0 0.00 0.00 0.00 80 1012.8
20260502042355 59 172 0.0 0.0 0.00 0.00 0.00 80 1012.8
20260502041902 59 172 0.0 0.0 0.00 0.00 0.00 80 1012.8
20260502041410 59 172 0.0 0.0 0.00 0.00 0.00 79 1012.8
20260502040905 59 172 0.0 0.0 0.00 0.00 0.00 80 1012.8
20260502040012 59 172 0.0 0.0 0.00 0.00 0.00 80 1012.6
20260502035507 59 172 0.0 0.0 0.00 0.00 0.00 79 1012.7
20260502035015 59 172 0.0 0.0 0.00 0.00 0.00 79 1012.7
20260502034522 59 172 0.0 0.0 0.00 0.00 0.00 78 1012.8
20260502034018 59 172 0.0 0.0 0.00 0.00 0.00 78 1012.9
20260502033513 59 172 0.0 0.0 0.00 0.00 0.00 78 1012.9
20260502033021 59 172 0.0 0.0 0.00 0.00 0.00 78 1013.0
20260502032517 59 172 0.0 0.0 0.00 0.00 0.00 78 1013.0
20260502031952 60 172 0.0 0.0 0.00 0.00 0.00 78 1013.1
20260502031452 60 172 0.0 0.0 0.00 0.00 0.00 78 1013.3
20260502030952 60 172 0.0 0.0 0.00 0.00 0.00 77 1013.3
20260502030452 60 172 0.0 0.0 0.00 0.00 0.00 77 1013.2
20260502025957 60 172 0.0 0.0 0.00 0.00 0.00 77 1013.2
20260502025505 60 172 0.0 0.0 0.00 0.00 0.00 77 1013.2
20260502024953 60 172 0.0 0.0 0.00 0.00 0.00 76 1013.2
20260502024453 60 172 0.0 0.0 0.00 0.00 0.00 76 1013.1
20260502023952 60 172 0.0 0.0 0.00 0.00 0.00 76 1013.1
20260502023453 60 172 0.0 0.0 0.00 0.00 0.00 76 1013.0
20260502022953 60 172 0.0 0.0 0.00 0.00 0.00 76 1013.0
20260502022452 60 172 0.0 0.0 0.00 0.00 0.00 75 1013.0
20260502021952 60 172 0.0 0.0 0.00 0.00 0.00 75 1012.9
20260502021452 61 172 0.0 0.0 0.00 0.00 0.00 75 1013.0
20260502020952 61 172 0.0 0.0 0.00 0.00 0.00 75 1013.1
20260502020453 61 172 0.0 0.0 0.00 0.00 0.00 74 1013.1
20260502015952 61 172 0.0 0.0 0.00 0.00 0.00 74 1013.0
20260502015457 61 172 0.0 0.0 0.00 0.00 0.00 74 1012.9
20260502015005 61 172 0.0 0.0 0.00 0.00 0.00 74 1012.8
20260502014457 61 172 0.0 0.0 0.00 0.00 0.00 74 1012.7
20260502014004 61 172 0.0 0.0 0.00 0.00 0.00 73 1012.6
20260502013452 62 172 0.0 0.0 0.00 0.00 0.00 73 1012.7
20260502012953 62 172 0.0 0.0 0.00 0.00 0.00 72 1012.7
20260502012452 62 172 0.0 0.0 0.00 0.00 0.00 71 1012.7
20260502011953 62 172 0.0 0.0 0.00 0.00 0.00 71 1012.8
20260502011457 62 172 0.0 0.0 0.00 0.00 0.00 72 1012.8
20260502011004 62 172 0.0 0.0 0.00 0.00 0.00 71 1012.8
20260502010452 62 172 0.0 0.0 0.00 0.00 0.00 70 1012.8
20260502005952 63 172 0.0 0.0 0.00 0.00 0.00 70 1012.8
20260502005452 63 172 0.0 0.0 0.00 0.00 0.00 70 1012.8
20260502004952 63 172 0.0 0.0 0.00 0.00 0.00 69 1012.7
20260502004457 63 172 0.0 0.0 0.00 0.00 0.00 69 1012.7
20260502004005 63 172 0.0 0.0 0.00 0.00 0.00 69 1012.5
20260502003453 63 172 0.0 0.0 0.00 0.00 0.00 69 1012.4
20260502002952 64 172 0.0 0.0 0.00 0.00 0.00 68 1012.3
20260502002452 64 172 0.0 0.0 0.00 0.00 0.00 68 1012.1
20260502001952 64 172 0.0 0.0 0.00 0.00 0.00 68 1012.1
20260502001452 64 172 0.0 0.0 0.00 0.00 0.00 68 1012.1
20260502000952 64 172 0.0 0.0 0.00 0.00 0.00 67 1012.2
20260502000454 64 172 0.0 0.0 0.00 0.00 0.00 67 1012.2
20260501235952 64 172 0.0 0.0 0.00 0.00 0.00 67 1012.0
20260501235457 65 172 0.0 0.0 0.00 0.00 0.00 68 1012.0
20260501235004 65 172 0.0 0.0 0.00 0.00 0.00 66 1011.9
20260501234452 65 172 0.0 0.0 0.00 0.00 0.00 66 1012.1
20260501233952 65 172 0.0 0.0 0.00 0.00 0.00 65 1012.0
20260501233452 65 172 0.0 0.0 0.00 0.00 0.00 65 1012.1
20260501232952 65 172 0.0 0.0 0.00 0.00 0.00 66 1012.0
20260501232452 65 172 0.0 0.0 0.00 0.00 0.00 65 1012.1